Regional Weather Roundup
Issued by NWS Sioux Falls, SD

Home | Current Version | Previous Version | Text Only | Print | Product List | Glossary Off
Versions: 1 2 3 4 5 6 7 8 9 10 11 12 13 14 15 16 17 18 19 20 21 22 23 24 25 26 27 28 29 30 31 32 33 34 35 36 37 38 39 40 41 42 43 44 45 46 47 48 49 50

000
ASUS43 KFSD 031402
RWRFSD

WEATHER ROUNDUP FOR SE SOUTH DAKOTA/SW MINNESOTA/NW IOWA
NATIONAL WEATHER SERVICE SIOUX FALLS SD
900 AM CDT WED JUN 03 2015

NOTE: "FAIR" INDICATES FEW OR NO CLOUDS BELOW 12,000 FEET WITH NO
SIGNIFICANT WEATHER AND OR OBSTRUCTIONS TO VISIBILITY.


SDZ038>040-050-052>070-031500-
SOUTHEAST SOUTH DAKOTA

CITY           SKY/WX    TMP DP  RH WIND       PRES   REMARKS
BROOKINGS      CLOUDY    66  61  82 NW9       29.85S THUNDER
CHAMBERLAIN    PTSUNNY   64  57  79 N15       29.87S
HURON          CLOUDY    62  60  93 NW15      29.82F
MADISON        LGT RAIN  64  64 100 N21G26    29.80F
MITCHELL       CLOUDY    67  63  87 SW3       29.83S
SIOUX FALLS    LGT RAIN  66  62  87 W16       29.81R
WINNER         FAIR      65  56  72 NW14      29.91R
YANKTON        CLOUDY    64  63  94 CALM      29.83F
$$

MNZ071-072-080-081-089-090-097-098-031500-
SOUTHWEST MINNESOTA

CITY           SKY/WX    TMP DP  RH WIND       PRES   REMARKS
FAIRMONT       CLOUDY    63  54  72 S20       29.84R
JACKSON        CLOUDY    63  59  88 S14       29.85R
LUVERNE        CLOUDY    63  61  94 S8        29.83R FOG
MARSHALL       CLOUDY    64  57  77 SW9       29.79R
MONTEVIDEO     CLOUDY    66  61  82 S6        29.78S
PIPESTONE      CLOUDY    64  59  82 N23G40    29.77F
REDWOOD FALLS  CLOUDY    67  58  72 SE12      29.78F
TRACY          CLOUDY    65  61  85 SW8       29.80R
WINDOM         PTSUNNY   63  57  82 SE13      29.82R
WORTHINGTON    CLOUDY    63  57  82 S13       29.83R
$$

IAZ001>003-012>014-020>022-031-032-NEZ013-014-SDZ071-031500-
NORTHWEST IOWA

CITY           SKY/WX    TMP DP  RH WIND       PRES   REMARKS
DENISON        CLOUDY    64  64 100 S6        29.86F
ESTHERVILLE    CLOUDY    61  58  90 S18G25    29.84R
SIOUX CITY     CLOUDY    68  61  78 W5        29.82F
SPENCER        CLOUDY    64  61  90 S12       29.84R
$$

ABBREVIATIONS USED IN REMARKS
   TC - TEMPERATURE IN CELSIUS
  WCI - WIND CHILL INDEX
   HX - HEAT INDEX
  VSB - VISIBILITY



USA.gov is the U.S. government's official web portal to all federal, state and local government web resources and services.